Wind_Speed
32 31 32 36 38 39 41 43 45 46 49 49 49 48 47 47 50 53 54 57 61 64 80 74 71 60 61 64 64 63 60 52 48 49 50 47 38 36 32 33 33 39 36 32
28 29 32 34 37 38 40 43 44 47 49 53 52 50 49 49 52 55 56 58 59 61 62 72 75 75 65 66 71 70 64 57 55 53 46 49 45 43 39 38 36 40 39 35
27 29 30 32 33 36 38 42 45 48 49 51 56 54 53 54 55 55 56 58 60 62 63 64 65 67 68 72 72 67 66 59 59 59 57 54 46 42 46 38 40 41 39 35
25 25 27 29 31 34 36 40 43 46 49 53 54 58 55 57 58 59 60 62 62 61 63 64 65 64 68 70 75 73 69 70 65 65 61 57 51 50 42 43 41 43 41 40
24 22 25 26 29 31 33 38 41 46 49 54 52 59 58 59 60 61 62 65 65 65 65 65 65 64 65 65 68 77 71 72 72 65 60 58 51 49 44 45 46 46 47 42
15 21 23 24 24 24 25 31 37 39 41 49 47 51 53 55 58 63 69 69 70 70 68 67 66 66 64 64 64 65 69 62 64 60 57 51 48 42 40 39 41 46 44 42
16 17 17 18 23 28 28 34 44 51 53 49 45 47 48 52 51 61 66 71 73 73 73 70 68 67 67 64 63 66 65 66 59 56 57 51 39 34 32 34 40 45 49 48
17 15 16 20 25 29 28 32 38 49 51 51 40 48 46 42 47 48 59 66 69 74 77 76 73 70 67 67 65 64 63 61 60 59 56 50 42 32 35 38 40 43 44 50
24 15 13 17 23 29 30 32 37 38 37 42 44 37 38 30 39 41 42 52 61 70 74 78 79 76 72 70 65 66 64 61 60 57 55 50 37 35 38 42 43 40 43 47
22 20 13 16 23 29 29 32 32 32 39 37 30 29 26 34 35 38 41 42 43 50 65 73 75 80 78 72 67 62 63 61 58 58 53 48 42 40 44 46 42 40 39 39
20 19 15 17 23 26 28 30 31 32 33 31 34 30 24 24 26 27 29 39 43 46 56 63 68 75 78 74 69 65 59 57 59 56 47 52 48 44 44 46 43 40 41 40
21 20 18 15 21 25 31 27 30 32 28 30 35 26 25 28 29 29 28 32 38 44 47 47 53 66 74 69 70 67 57 54 52 57 50 50 45 46 42 43 43 39 38 34
21 21 21 14 18 23 27 31 30 31 30 30 37 25 26 27 25 25 25 28 29 39 35 36 42 50 65 66 69 65 62 51 52 49 50 49 43 43 41 40 37 37 31 31
24 20 20 19 19 22 18 20 31 31 30 27 33 28 24 23 25 29 33 34 24 19 28 37 38 43 55 67 71 64 60 55 51 49 52 47 47 46 39 36 35 34 31 28
26 22 21 19 18 21 20 19 22 30 29 34 25 30 27 23 24 26 27 35 11 13 21 21 39 44 47 55 63 59 58 54 52 51 51 48 46 41 37 34 33 31 26 27
25 23 21 20 20 23 20 20 23 20 19 22 25 23 25 28 26 19 25 35 2 13 33 14 24 40 52 46 52 52 56 54 53 51 49 50 44 39 35 34 32 29 29 28
30 24 26 18 20 23 21 19 16 14 16 19 20 18 18 19 20 24 27 18 15 29 10 25 27 48 48 47 46 46 48 55 50 46 45 43 40 36 35 32 32 31 29 27
16 21 26 21 21 21 19 19 18 16 14 18 17 14 15 14 10 14 21 17 7 40 17 39 51 52 53 55 51 47 48 49 36 40 40 37 36 35 33 33 33 31 29 28
20 22 25 27 26 26 20 21 23 21 13 18 18 15 14 17 16 19 17 15 7 18 41 41 50 45 48 52 45 45 41 39 35 42 39 37 35 35 36 34 32 31 28 26
21 23 27 28 32 32 22 23 24 27 21 19 20 15 17 17 11 16 17 13 4 11 30 33 35 37 39 46 44 46 39 37 38 44 42 39 40 36 34 32 28 29 27 24
19 22 24 26 33 31 25 24 26 28 23 19 22 23 22 20 20 17 20 13 10 16 25 30 29 35 40 46 46 41 39 40 47 43 42 41 34 35 35 30 28 25 23 21
21 23 23 27 29 30 23 26 29 29 25 30 31 26 28 23 16 20 21 15 13 17 27 28 26 32 36 40 46 39 41 65 49 49 45 41 36 33 30 27 23 21 19 17
22 22 25 26 24 27 30 29 28 30 28 31 36 32 35 27 20 24 23 20 17 17 25 24 29 33 37 38 34 36 43 40 52 38 47 40 35 30 27 23 21 19 18 18
19 23 20 20 19 27 28 27 28 32 37 39 41 44 39 23 25 29 29 27 24 23 26 26 20 17 27 31 34 37 30 37 47 45 42 36 31 27 23 21 18 18 18 17
18 16 17 14 18 21 24 28 33 40 42 46 44 40 26 16 24 33 33 32 32 33 32 30 25 21 22 17 26 33 39 44 44 41 37 33 29 26 23 20 18 16 15 15
10 13 15 16 25 32 30 33 37 44 44 31 32 26 18 21 23 29 35 34 34 36 35 27 21 24 16 15 31 48 47 41 39 38 33 29 27 23 20 18 17 16 16 13
Wind_Direction
248 248 248 249 250 249 249 251 252 254 254 252 251 246 243 240 240 238 237 235 235 228 219 222 221 224 237 240 247 246 249 249 249 251 254 257 259 250 257 268 276 277 278 284
257 252 250 249 251 253 254 254 253 254 254 256 252 248 247 243 241 240 239 238 235 237 237 223 224 224 228 240 240 246 244 244 246 247 252 253 255 257 263 269 274 279 280 278
257 257 257 258 258 257 257 256 256 257 256 258 257 248 248 247 245 243 243 240 238 235 234 237 236 236 239 233 240 238 243 242 244 246 249 251 251 255 263 274 279 280 280 277
264 264 263 262 261 261 261 262 262 261 259 258 256 254 248 250 249 249 245 245 242 238 235 233 235 233 235 240 235 241 242 246 245 245 250 252 254 258 262 269 267 276 276 277
277 277 274 270 267 265 266 264 263 265 264 264 262 259 250 249 251 251 248 248 245 241 238 236 232 232 233 236 238 239 245 244 246 248 251 250 251 254 259 261 268 269 271 273
286 279 270 270 267 266 279 290 284 278 279 266 267 266 251 253 251 249 250 248 248 246 241 238 235 232 230 234 237 238 241 244 244 248 254 254 254 255 260 267 267 260 261 265
284 260 276 296 293 292 300 304 306 302 297 289 282 274 262 262 254 250 246 245 246 245 245 242 238 236 232 228 231 235 238 243 246 246 253 256 251 251 259 264 263 252 252 257
286 251 292 302 295 298 300 306 307 301 297 289 276 271 263 259 261 253 251 249 245 243 243 243 241 238 236 233 227 232 234 238 242 247 247 247 249 247 248 254 257 257 254 254
292 268 287 301 300 304 312 317 309 299 294 286 284 271 259 247 257 270 259 257 251 246 242 239 240 240 236 234 231 227 233 236 239 244 248 249 245 239 244 250 253 256 255 253
283 280 302 300 300 298 308 309 304 297 293 286 276 273 263 250 263 275 279 270 268 259 249 241 238 237 236 235 233 229 227 232 237 240 243 246 244 241 239 239 249 257 261 262
276 283 306 300 298 309 308 303 291 291 284 279 276 266 264 275 294 280 284 272 273 269 260 245 239 235 233 231 233 231 224 226 231 236 238 239 235 236 237 237 244 252 262 259
268 277 288 290 298 310 307 291 282 283 287 269 274 261 275 295 291 284 291 286 280 274 269 259 244 229 231 228 227 229 224 221 223 229 230 233 227 230 233 237 244 257 256 249
259 267 277 289 296 304 309 292 280 281 277 275 271 281 280 294 293 285 306 306 298 276 267 259 247 235 217 220 221 222 224 218 220 223 228 228 227 227 233 237 244 243 244 247
261 267 282 293 298 308 309 298 279 278 285 284 275 280 278 286 290 280 308 310 301 275 252 248 238 216 207 210 211 215 217 215 216 220 226 223 225 226 233 236 236 238 239 240
261 264 271 284 287 298 308 297 280 275 284 286 296 284 284 276 287 296 305 294 323 239 221 222 195 190 200 209 206 209 211 216 215 219 221 218 220 221 227 231 233 231 229 228
270 264 271 278 279 296 304 310 309 293 287 307 306 312 302 299 299 309 310 304 142 185 167 84 138 185 198 205 206 204 209 211 209 215 207 212 215 219 222 225 226 222 221 228
267 264 268 275 268 284 296 304 311 300 298 299 304 312 314 303 275 290 297 319 139 202 179 122 172 193 194 192 193 197 202 206 202 205 204 201 206 212 216 219 220 217 222 224
269 262 271 276 273 284 301 295 300 291 303 305 314 314 319 323 326 301 294 322 189 191 188 167 177 191 194 199 200 193 199 200 204 204 198 197 202 207 209 210 214 219 219 225
266 266 277 282 277 286 298 295 297 286 286 289 298 293 313 316 331 308 310 315 143 176 184 187 192 197 198 200 199 201 197 205 212 200 190 193 199 202 205 205 212 218 223 227
274 270 272 280 281 287 294 288 288 295 294 284 289 294 307 319 292 264 285 288 275 202 177 194 199 208 202 205 218 205 200 204 200 192 189 188 196 194 203 208 210 216 214 213
276 278 277 277 278 286 294 287 292 293 288 289 295 293 297 311 308 232 240 255 249 221 201 211 202 202 201 197 201 209 206 206 195 185 185 190 178 185 199 206 209 205 207 217
279 283 278 274 280 291 296 293 288 290 294 288 294 299 299 305 284 236 220 218 228 211 211 212 202 196 200 210 217 214 221 202 182 177 179 177 186 192 196 200 196 202 212 219
278 284 284 291 302 302 294 290 293 293 298 290 289 290 298 295 248 210 214 208 219 223 223 212 203 209 208 210 216 221 227 194 173 165 162 176 182 187 189 189 194 204 213 225
279 279 298 303 319 294 292 294 293 290 298 301 294 290 293 282 227 197 211 213 215 223 217 216 215 223 211 212 225 226 168 150 151 153 161 172 176 177 183 188 195 206 219 231
284 301 299 301 302 315 304 293 286 287 298 294 290 284 272 237 218 198 192 198 208 215 216 223 223 226 186 212 221 220 150 148 150 156 161 165 168 173 182 190 198 213 224 224
328 335 321 310 302 303 301 296 290 285 297 287 278 278 268 232 218 197 191 194 205 212 212 220 219 188 177 218 154 154 149 151 154 154 157 163 169 174 182 190 205 219 221 226
Height
5698 5700 5701 5701 5702 5704 5703 5704 5706 5708 5708 5711 5714 5721 5728 5730 5732 5734 5739 5745 5750 5757 5764 5764 5770 5775 5776 5780 5783 5788 5795 5801 5805 5809 5813 5817 5822 5826 5828 5830 5831 5832 5833 5833
5691 5692 5692 5693 5693 5694 5694 5695 5697 5698 5699 5699 5704 5710 5715 5719 5721 5723 5726 5731 5738 5742 5745 5754 5755 5761 5767 5768 5773 5777 5780 5788 5794 5797 5802 5807 5813 5817 5818 5824 5824 5825 5826 5826
5684 5684 5684 5684 5686 5686 5685 5684 5688 5688 5689 5691 5690 5697 5702 5705 5706 5711 5714 5717 5720 5726 5733 5739 5745 5750 5755 5760 5762 5770 5772 5776 5782 5788 5792 5798 5802 5806 5812 5815 5817 5816 5817 5818
5677 5677 5676 5676 5676 5676 5676 5675 5676 5677 5677 5677 5680 5680 5689 5692 5693 5695 5698 5699 5706 5713 5717 5723 5730 5736 5740 5747 5752 5756 5763 5767 5770 5775 5781 5786 5792 5797 5803 5807 5808 5807 5808 5809
5671 5672 5670 5669 5668 5668 5666 5666 5666 5665 5664 5661 5667 5661 5679 5679 5680 5680 5679 5682 5688 5695 5701 5708 5715 5721 5727 5734 5740 5746 5751 5756 5760 5764 5770 5778 5782 5789 5794 5796 5798 5797 5799 5799
5668 5664 5663 5662 5661 5659 5657 5655 5652 5651 5650 5650 5648 5643 5668 5665 5662 5661 5661 5666 5670 5675 5683 5693 5701 5707 5714 5719 5726 5732 5737 5743 5749 5756 5761 5766 5773 5781 5783 5785 5787 5787 5788 5789
5660 5658 5656 5654 5651 5649 5649 5645 5640 5636 5635 5635 5635 5628 5651 5644 5643 5639 5642 5645 5650 5657 5663 5672 5682 5689 5699 5706 5712 5717 5723 5731 5739 5745 5750 5755 5763 5770 5771 5774 5777 5776 5776 5780
5654 5653 5650 5647 5643 5641 5641 5638 5634 5623 5620 5617 5623 5615 5630 5628 5621 5621 5622 5626 5632 5637 5643 5651 5661 5671 5683 5690 5699 5704 5711 5721 5727 5733 5740 5748 5754 5759 5762 5764 5766 5766 5768 5770
5642 5645 5645 5641 5637 5633 5631 5627 5623 5616 5612 5605 5605 5607 5608 5615 5610 5608 5610 5610 5612 5616 5623 5634 5643 5652 5662 5670 5682 5692 5700 5709 5715 5721 5728 5736 5747 5749 5753 5755 5754 5756 5758 5760
5636 5635 5637 5634 5631 5626 5624 5620 5615 5610 5603 5598 5596 5594 5599 5603 5604 5601 5600 5597 5598 5598 5603 5616 5624 5631 5639 5654 5666 5678 5689 5699 5706 5712 5719 5728 5735 5739 5741 5744 5744 5746 5748 5750
5630 5630 5631 5628 5624 5620 5618 5613 5607 5604 5598 5593 5589 5590 5595 5597 5596 5593 5591 5590 5589 5587 5586 5594 5602 5606 5620 5636 5651 5663 5677 5688 5696 5704 5710 5718 5726 5729 5731 5734 5735 5737 5740 5741
5625 5624 5624 5624 5620 5616 5611 5607 5601 5596 5594 5589 5585 5583 5589 5589 5587 5585 5584 5581 5577 5574 5574 5575 5576 5582 5604 5623 5635 5648 5663 5675 5685 5693 5702 5708 5715 5718 5720 5723 5727 5730 5731 5730
5621 5620 5617 5618 5616 5610 5605 5599 5594 5590 5586 5583 5579 5579 5583 5582 5579 5578 5574 5571 5562 5559 5561 5561 5562 5570 5586 5605 5620 5635 5649 5664 5673 5680 5689 5697 5703 5707 5711 5716 5719 5721 5721 5724
5612 5613 5611 5610 5607 5603 5600 5594 5588 5582 5579 5578 5573 5573 5577 5574 5572 5570 5565 5559 5554 5549 5549 5549 5551 5559 5576 5587 5601 5622 5638 5651 5661 5668 5677 5685 5690 5698 5704 5707 5710 5712 5714 5717
5604 5606 5604 5603 5600 5597 5592 5588 5582 5575 5574 5569 5571 5566 5568 5568 5565 5563 5558 5551 5544 5543 5542 5544 5552 5562 5571 5582 5597 5612 5627 5640 5650 5657 5664 5672 5681 5688 5694 5698 5700 5704 5709 5713
5597 5598 5597 5596 5593 5590 5586 5582 5578 5573 5570 5566 5563 5561 5561 5560 5559 5558 5552 5545 5540 5540 5535 5540 5540 5555 5569 5581 5594 5606 5616 5627 5637 5645 5653 5662 5671 5679 5686 5690 5694 5700 5703 5707
5587 5590 5590 5590 5588 5585 5583 5578 5574 5570 5567 5564 5561 5559 5556 5554 5552 5551 5547 5542 5537 5539 5541 5537 5545 5555 5566 5577 5585 5595 5607 5619 5628 5636 5644 5653 5663 5672 5678 5684 5690 5695 5699 5702
5584 5583 5582 5582 5580 5579 5577 5573 5570 5567 5564 5559 5557 5555 5553 5552 5550 5546 5541 5537 5537 5541 5539 5538 5542 5554 5564 5572 5581 5592 5603 5615 5624 5633 5642 5651 5659 5665 5672 5680 5685 5689 5694 5697
5578 5577 5575 5573 5572 5572 5573 5566 5563 5560 5562 5556 5553 5552 5550 5547 5546 5542 5539 5537 5537 5538 5538 5541 5547 5552 5562 5571 5582 5590 5599 5609 5618 5628 5637 5645 5653 5661 5668 5676 5681 5686 5689 5691
5571 5571 5570 5567 5563 5561 5565 5560 5556 5553 5553 5552 5549 5548 5547 5543 5543 5540 5537 5537 5536 5537 5539 5543 5550 5555 5562 5572 5578 5586 5597 5605 5613 5621 5631 5639 5647 5657 5664 5671 5677 5681 5684 5686
5566 5564 5562 5560 5555 5555 5556 5552 5550 5547 5547 5545 5543 5541 5539 5537 5534 5534 5533 5536 5537 5538 5539 5544 5552 5556 5561 5568 5576 5585 5591 5601 5609 5617 5625 5632 5641 5653 5661 5667 5672 5676 5678 5681
5560 5558 5556 5553 5551 5549 5547 5545 5542 5539 5537 5533 5532 5531 5529 5530 5528 5526 5529 5534 5536 5537 5540 5545 5550 5554 5561 5567 5574 5582 5589 5590 5601 5604 5612 5630 5641 5650 5657 5663 5667 5670 5673 5676
5553 5552 5548 5548 5547 5544 5539 5535 5534 5530 5529 5526 5521 5522 5519 5519 5519 5521 5526 5531 5533 5534 5537 5544 5549 5555 5562 5567 5574 5581 5585 5578 5590 5581 5611 5629 5638 5646 5654 5659 5663 5666 5669 5671
5549 5546 5544 5542 5543 5535 5531 5529 5527 5523 5519 5517 5513 5508 5508 5508 5508 5514 5522 5525 5530 5532 5536 5541 5548 5554 5560 5565 5568 5574 5573 5581 5585 5600 5614 5627 5637 5644 5650 5656 5659 5663 5665 5667
5543 5543 5540 5538 5534 5531 5527 5523 5517 5513 5509 5503 5499 5496 5494 5498 5500 5507 5515 5520 5526 5531 5535 5541 5549 5556 5563 5567 5568 5568 5575 5582 5594 5605 5616 5626 5634 5641 5648 5652 5656 5659 5662 5664
5542 5540 5537 5535 5529 5524 5522 5516 5509 5502 5496 5491 5485 5486 5487 5488 5492 5499 5508 5516 5523 5529 5535 5544 5550 5558 5565 5568 5566 5573 5580 5590 5599 5607 5617 5625 5633 5638 5644 5649 5654 5657 5659 5660